Tracking 29487 objects as of 10-Sep-2024
HD Live streaming from Space Station
objects crossing your sky now

FENGYUN 1C DEB

Track FENGYUN 1C DEB now!
10-day predictions


NORAD ID: 31624
Int'l Code: 1999-025CAE
Perigee: 651.7 km
Apogee: 702.8 km
Inclination: 99.7 °
Period: 98.1 minutes
Semi major axis: 7048 km
RCS: 0.0067 m2 (small)
Launch date: May 10, 1999
Source: People's Republic of China (PRC)
Launch site: Taiyaun Space Center, China (TSC)

Note: This is SATELLITE DEBRIS
Your satellite tracking list
Your tracking list is empty




NASA's NSSDC Master Catalog

Two Line Element Set (TLE):
1 31624U 99025CAE 24254.35649326  .00068865  00000-0  12014-1 0  9998
2 31624  99.6603  33.8138 0036254 213.6616 202.3360 14.67167854907340
Source of the keplerian elements: AFSPC